Find Starlink 2582

NORAD ID: 48460 Int'l Des: 2021-040 Owner: SPXS Country: US Constellation: starlink operational
LEOCIRCULAR

リアルタイム位置

3D地球を読み込み中...

Starlink 2582について

説明を読み込み中...

次回通過

Passes for default location (London). Set your location on the main map for personalized predictions.

高度履歴

Loading altitude history...

軌道要素

1 48460U 21040AJ 26104.58096601 .00091674 00000-0 93728-3 0 9996
2 48460 53.0533 315.7396 0003606 193.2645 166.8275 15.64291288273476
Epoch: Apr 14, 2026 • Age: 14 hours

現在のステータス

高度 379.2 km
速度 7.69 km/s
衛星直下点 32.16°N, 78.81°E
打ち上げ日 May 9, 2021
運用期間 4.9 years
タイプ internet

技術仕様

分類 Payload
質量 260.00 kg
乾燥質量 248.00 kg
総質量 260.00 kg
長さ 0.20 m
直径 2.80 m
スパン 9.00 m
形状 Box + pan
製造者 SPXS
バスタイプ Starlink
フェーズステータス In Orbit
所有者/国 SPXS/US

Most Searched